User: anonymous   Login
Location: Home
(42.5358°N, 72.7383°W)
Time: 14:12:37
(UTC-05:00)
Language:

KAITUO 1B - Orbit

View from above orbital plane
View from above orbital plane
View from above satellite
View from above satellite

Ground track
Ground track

The orbit data is extracted from the following two-line orbital elements,

1 40912U 15049P   22019.53659267  .00006833  00000-0  29268-3 0  9992
2 40912  97.4417  31.9881 0015488 102.7648  53.4742 15.22994214351063
Epoch (UTC): 19 January 2022 12:52:41
Eccentricity: 0.0015488
inclination: 97.4417°
perigee height: 486 km
apogee height: 507 km
right ascension of ascending node: 31.9881°
argument of perigee: 102.7648°
revolutions per day: 15.22994214
mean anomaly at epoch: 53.4742°
orbit number at epoch: 35106

The dashed part of the orbit path shows where the satellite is in the earth's shadow,  

DLR